Weather History for Eindhoven, Netherlands

Change the Weather History Date:

Saturday, November 16, 2013

  Actual Average Record
Temperature  
Mean Temperature 34 °F -  
Max Temperature 38 °F 44 °F 64 °F (2006)
Min Temperature 31 °F 34 °F 23 °F (1999)
Degree Days  
Heating Degree Days 30    
Moisture  
Dew Point 36 °F    
Average Humidity 99    
Maximum Humidity 100    
Minimum Humidity 93    
Precipitation  
Precipitation 0.00 in - - ()
Sea Level Pressure  
Sea Level Pressure 30.44 in    
Wind  
Wind Speed 2 mph ()    
Max Wind Speed 5 mph    
Max Gust Speed -    
Visibility 0.6 miles    
Events Fog , Rain    
Averages and records for this station are not official NWS values.
T = Trace of Precipitation, MM = Missing Value Source: Averaged Metar Reports

Daily Weather History Graph

Daily Weather History Graph

Search for Another Location

Airport:

Trip Planner

Search our weather history database for the weather conditions in past years. The results will help you decide how hot, cold, wet, or windy it might be!

Date:

Astronomy

Nov. 16, 2013 Rise Set
Actual Time 7:58 AM CET 4:47 PM CET
Civil Twilight 7:21 AM CET 5:24 PM CET
Nautical Twilight 6:40 AM CET 6:05 PM CET
Astronomical Twilight 6:00 AM CET 6:44 PM CET
Moon 4:18 PM CET (11/16) 6:31 AM CET (11/16)
Length of Visible Light 10h 03m
Length of Day
8h 49m
Waxing Gibbous, 99% of the Moon is Illuminated
Nov 16
Waxing Gibbous
Nov 17
Full
Nov 25
Last Quarter
Dec 3
New
Dec 9
First Quarter

Hourly Weather History & Observations

Time (CET) Temp. Windchill Dew Point Humidity Pressure Visibility Wind Dir Wind Speed Gust Speed Precip Events Conditions
12:25 AM 33.8 °F - 33.8 °F 100% 30.48 in 0.1 mi NNE 1.2 mph - N/A Rain Rain
12:55 AM 33.8 °F - 32.0 °F 93% 30.48 in 0.3 mi South 1.2 mph - N/A Fog Fog
12:59 AM 32.0 °F - 32.0 °F 100% 30.48 in 0.3 mi Calm Calm - N/A Fog Fog
1:00 AM 33 °F - 33 °F 99% 30.49 in 0 mi Calm Calm - - Fog Fog
1:09 AM 33.8 °F - 33.8 °F 100% 30.48 in - West 1.2 mph - N/A Fog Fog
1:10 AM 33.8 °F - 33.8 °F 100% 30.48 in 0.3 mi West 1.2 mph - N/A Fog Fog
1:25 AM 33.8 °F - 33.8 °F 100% 30.48 in 0.2 mi Calm Calm - N/A Fog Fog
1:55 AM 33.8 °F - 33.8 °F 100% 30.48 in 0.2 mi NW 1.2 mph - N/A Fog Fog
2:14 AM 32.0 °F 28.7 °F 32.0 °F 100% 30.48 in 0.2 mi SSE 3.5 mph - N/A Fog Fog
2:25 AM 32.0 °F 28.7 °F 32.0 °F 100% 30.48 in 0.3 mi South 3.5 mph - N/A Fog Fog
2:55 AM 33.8 °F - 33.8 °F 100% 30.48 in 0.2 mi NW 1.2 mph - N/A Fog Fog
2:56 AM 33.8 °F - 33.8 °F 100% 30.48 in 0.2 mi NNW 1.2 mph - N/A Fog Fog
3:03 AM 33.8 °F - 32.0 °F 93% 30.48 in 0.2 mi NNW 1.2 mph - N/A Fog Fog
3:25 AM 32.0 °F - 32.0 °F 100% 30.45 in 0.1 mi Calm Calm - N/A Fog Fog
3:55 AM 32.0 °F - 32.0 °F 100% 30.48 in 0.1 mi Calm Calm - N/A Fog Fog
4:00 AM 32 °F - 31 °F 96% 30.48 in 0 mi Calm Calm - - Fog Fog
4:25 AM 32.0 °F - 32.0 °F 100% 30.45 in 0.2 mi Calm Calm - N/A Fog Light Freezing Fog
4:55 AM 32.0 °F - 32.0 °F 100% 30.48 in 0.2 mi Calm Calm - N/A Fog Light Freezing Fog
5:11 AM 32.0 °F - 30.2 °F 93% 30.48 in 0.2 mi North 1.2 mph - N/A Fog Light Freezing Fog
5:25 AM 32.0 °F - 32.0 °F 100% 30.48 in 0.4 mi NNE 2.3 mph - N/A Fog Light Freezing Fog
5:38 AM 32.0 °F - 32.0 °F 100% 30.48 in 0.6 mi Calm Calm - N/A Fog Fog
5:45 AM 32.0 °F - 32.0 °F 100% 30.48 in 1.1 mi Calm Calm - N/A   Overcast
5:49 AM 32.0 °F - 32.0 °F 100% 30.48 in 1.2 mi Calm Calm - N/A   Mostly Cloudy
5:55 AM 32.0 °F - 32.0 °F 100% 30.48 in 0.7 mi WNW 1.2 mph - N/A   Overcast
5:59 AM 32.0 °F - 32.0 °F 100% 30.48 in 1.0 mi WNW 1.2 mph - N/A   Overcast
6:08 AM 32.0 °F - 32.0 °F 100% 30.48 in - WNW 1.2 mph - N/A   Overcast
6:12 AM 33.8 °F - 33.8 °F 100% 30.48 in - NW 1.2 mph - N/A   Overcast
6:25 AM 33.8 °F - 33.8 °F 100% 30.48 in - Calm Calm - N/A   Overcast
6:42 AM 33.8 °F - 33.8 °F 100% 30.48 in - Calm Calm - N/A   Overcast
6:55 AM 33.8 °F - 33.8 °F 100% 30.48 in 3.1 mi Calm Calm - N/A   Overcast
7:00 AM 34 °F - 34 °F 98% 30.49 in 3 mi Calm Calm - -   Mist
7:25 AM 35.6 °F - 35.6 °F 100% 30.48 in - South 1.2 mph - N/A   Overcast
7:36 AM 35.6 °F - 35.6 °F 100% 30.48 in - South 1.2 mph - N/A   Overcast
7:40 AM 35.6 °F - 35.6 °F 100% 30.48 in - SSE 2.3 mph - N/A   Overcast
7:44 AM 35.6 °F 32.8 °F 35.6 °F 100% 30.48 in - SSE 3.5 mph - N/A   Mostly Cloudy
7:48 AM 35.6 °F 32.8 °F 35.6 °F 100% 30.48 in - SSE 3.5 mph - N/A   Mostly Cloudy
7:55 AM 35.6 °F - 35.6 °F 100% 30.48 in 1.4 mi SSE 2.3 mph - N/A   Mostly Cloudy
8:25 AM 35.6 °F 32.8 °F 35.6 °F 100% 30.48 in 1.4 mi SSE 3.5 mph - N/A   Mostly Cloudy
8:29 AM 35.6 °F 32.8 °F 35.6 °F 100% 30.48 in 1.2 mi SE 3.5 mph - N/A   Mostly Cloudy
8:35 AM 35.6 °F - 35.6 °F 100% 30.48 in 0.8 mi SSE 2.3 mph - N/A   Overcast
8:39 AM 35.6 °F - 35.6 °F 100% 30.48 in 0.7 mi SSE 2.3 mph - N/A   Overcast
8:41 AM 35.6 °F - 35.6 °F 100% 30.48 in 0.7 mi South 2.3 mph - N/A   Overcast
8:49 AM 35.6 °F - 35.6 °F 100% 30.48 in - South 2.3 mph - N/A Fog Fog
8:55 AM 35.6 °F - 35.6 °F 100% 30.48 in 0.4 mi SSE 2.3 mph - N/A Fog Fog
9:18 AM 35.6 °F 32.8 °F 35.6 °F 100% 30.48 in 0.2 mi SSE 3.5 mph - N/A Fog Fog
9:25 AM 35.6 °F 32.8 °F 35.6 °F 100% 30.48 in 0.2 mi South 3.5 mph - N/A Fog Fog
9:36 AM 35.6 °F - 35.6 °F 100% 30.48 in 0.2 mi South 2.3 mph - N/A Fog Fog
9:55 AM 35.6 °F - 35.6 °F 100% 30.48 in 0.2 mi South 2.3 mph - N/A Fog Fog
10:00 AM 37 °F - 36 °F 97% 30.51 in 0 mi South 2.2 mph - - Fog Fog
10:25 AM 37.4 °F - 37.4 °F 100% 30.48 in 0.1 mi South 2.3 mph - N/A Fog Fog
10:55 AM 37.4 °F - 37.4 °F 100% 30.48 in 0.1 mi South 2.3 mph - N/A Fog Fog
11:02 AM 37.4 °F - 37.4 °F 100% 30.48 in 0.1 mi SSE 2.3 mph - N/A Fog Fog
11:05 AM 37.4 °F - 37.4 °F 100% 30.48 in 0.1 mi SSE 2.3 mph - N/A Fog Fog
11:14 AM 37.4 °F - 37.4 °F 100% 30.48 in 0.1 mi South 2.3 mph - N/A Fog Fog
11:25 AM 37.4 °F - 37.4 °F 100% 30.48 in 0.1 mi SSE 2.3 mph - N/A Fog Fog
11:30 AM 37.4 °F - 37.4 °F 100% 30.48 in 0.1 mi South 2.3 mph - N/A Fog Fog
11:47 AM 37.4 °F - 37.4 °F 100% 30.48 in 0.1 mi SSW 2.3 mph - N/A Fog Fog
11:55 AM 37.4 °F 34.9 °F 37.4 °F 100% 30.48 in 0.1 mi South 3.5 mph - N/A Fog Fog
12:21 PM 37.4 °F 34.9 °F 37.4 °F 100% 30.48 in 0.2 mi SW 3.5 mph - N/A Fog Fog
12:25 PM 37.4 °F 34.9 °F 37.4 °F 100% 30.48 in 0.1 mi SW 3.5 mph - N/A Fog Fog
12:55 PM 39.2 °F 37.0 °F 37.4 °F 93% 30.48 in 0.3 mi West 3.5 mph - N/A Fog Fog
1:00 PM 38 °F - 38 °F 100% 30.48 in 0 mi SW 2.2 mph - - Fog Fog
1:25 PM 39.2 °F 37.0 °F 37.4 °F 93% 30.45 in 0.2 mi South 3.5 mph - N/A Fog Fog
1:48 PM 39.2 °F - 39.2 °F 100% 30.45 in 0.1 mi South 2.3 mph - N/A Fog Fog
1:55 PM 39.2 °F 37.0 °F 39.2 °F 100% 30.45 in 0.1 mi SSW 3.5 mph - N/A Fog Fog
2:14 PM 39.2 °F 37.0 °F 37.4 °F 93% 30.45 in 0.2 mi SSW 3.5 mph - N/A Fog Fog
2:25 PM 39.2 °F 37.0 °F 37.4 °F 93% 30.45 in 0.1 mi SSW 3.5 mph - N/A Fog Fog
2:33 PM 39.2 °F - 39.2 °F 100% 30.45 in 0.1 mi South 2.3 mph - N/A Fog Fog
2:55 PM 39.2 °F - 37.4 °F 93% 30.45 in 0.1 mi SSE 2.3 mph - N/A Fog Fog
3:25 PM 39.2 °F - 37.4 °F 93% 30.42 in 0.1 mi South 2.3 mph - N/A Fog Fog
3:55 PM 37.4 °F 34.9 °F 37.4 °F 100% 30.42 in 0.1 mi South 3.5 mph - N/A Fog Fog
4:00 PM 38 °F - 38 °F 99% 30.44 in 0 mi South 2.2 mph - - Fog Fog
4:25 PM 37.4 °F 34.9 °F 37.4 °F 100% 30.42 in 0.1 mi South 3.5 mph - N/A Fog Fog
4:55 PM 37.4 °F 34.9 °F 37.4 °F 100% 30.42 in 0.2 mi South 3.5 mph - N/A Fog Fog
5:08 PM 37.4 °F - 37.4 °F 100% 30.42 in 0.2 mi South 2.3 mph - N/A Fog Fog
5:25 PM 37.4 °F - 37.4 °F 100% 30.42 in 0.2 mi SSW 2.3 mph - N/A Fog Fog
5:55 PM 37.4 °F 34.9 °F 37.4 °F 100% 30.42 in 0.2 mi West 3.5 mph - N/A Fog Fog
6:25 PM 37.4 °F - 37.4 °F 100% 30.42 in 0.2 mi SW 2.3 mph - N/A Fog Fog
6:48 PM 37.4 °F 34.9 °F 37.4 °F 100% 30.42 in 0.3 mi South 3.5 mph - N/A Fog Fog
6:55 PM 37.4 °F 34.9 °F 37.4 °F 100% 30.42 in 0.2 mi South 3.5 mph - N/A Fog Fog
7:00 PM 37 °F - 37 °F 98% 30.42 in 0 mi South 4.5 mph - - Fog Fog
7:25 PM 35.6 °F 31.7 °F 35.6 °F 100% 30.42 in 0.4 mi South 4.6 mph - N/A Fog Fog
7:29 PM 35.6 °F 31.7 °F 35.6 °F 100% 30.39 in 0.6 mi South 4.6 mph - N/A Fog Fog
7:34 PM 35.6 °F 31.7 °F 35.6 °F 100% 30.39 in 0.6 mi South 4.6 mph - N/A Fog Fog
7:39 PM 35.6 °F 31.7 °F 35.6 °F 100% 30.39 in 0.6 mi South 4.6 mph - N/A Fog Fog
7:43 PM 35.6 °F 32.8 °F 35.6 °F 100% 30.39 in 0.6 mi South 3.5 mph - N/A Fog Fog
7:55 PM 35.6 °F 32.8 °F 35.6 °F 100% 30.39 in 1.2 mi South 3.5 mph - N/A   Overcast
8:09 PM 35.6 °F 32.8 °F 35.6 °F 100% 30.39 in 0.9 mi South 3.5 mph - N/A   Overcast
8:18 PM 35.6 °F 32.8 °F 35.6 °F 100% 30.39 in 1.0 mi South 3.5 mph - N/A   Overcast
8:25 PM 35.6 °F - 35.6 °F 100% 30.39 in 1.3 mi South 2.3 mph - N/A   Overcast
8:30 PM 35.6 °F - 35.6 °F 100% 30.39 in 1.4 mi South 2.3 mph - N/A   Overcast
8:43 PM 35.6 °F - 35.6 °F 100% 30.39 in 1.6 mi SSW 2.3 mph - N/A   Overcast
8:55 PM 37.4 °F - 35.6 °F 93% 30.39 in 1.4 mi SSW 2.3 mph - N/A   Overcast
9:01 PM 37.4 °F - 35.6 °F 93% 30.39 in 1.4 mi South 2.3 mph - N/A   Overcast
9:05 PM 37.4 °F - 35.6 °F 93% 30.39 in 1.4 mi South 2.3 mph - N/A   Overcast
9:16 PM 37.4 °F - 35.6 °F 93% 30.39 in 1.2 mi SW 2.3 mph - N/A   Overcast
9:17 PM 37.4 °F - 35.6 °F 93% 30.39 in 1.2 mi SW 2.3 mph - N/A   Overcast
9:25 PM 37.4 °F - 35.6 °F 93% 30.39 in 1.1 mi SSW 2.3 mph - N/A   Overcast
9:55 PM 37.4 °F - 35.6 °F 93% 30.39 in 1.3 mi South 2.3 mph - N/A   Overcast
10:00 PM 37 °F - 36 °F 96% 30.40 in 1 mi South 2.2 mph - - Fog Fog
10:11 PM 37.4 °F - 37.4 °F 100% 30.39 in 1.4 mi SSW 2.3 mph - N/A   Overcast
10:25 PM 37.4 °F 34.9 °F 37.4 °F 100% 30.36 in 1.2 mi South 3.5 mph - N/A   Overcast
10:37 PM 37.4 °F 34.9 °F 37.4 °F 100% 30.36 in 1.1 mi South 3.5 mph - N/A   Overcast
10:41 PM 37.4 °F 34.9 °F 37.4 °F 100% 30.36 in 1.1 mi South 3.5 mph - N/A   Overcast
10:45 PM 37.4 °F 34.9 °F 37.4 °F 100% 30.36 in 1.1 mi South 3.5 mph - N/A   Overcast
10:51 PM 37.4 °F 34.9 °F 37.4 °F 100% 30.36 in 1.1 mi South 3.5 mph - N/A   Overcast
10:55 PM 37.4 °F - 37.4 °F 100% 30.36 in 1.0 mi South 2.3 mph - N/A   Overcast
10:59 PM 37.4 °F 34.9 °F 37.4 °F 100% 30.36 in 1.0 mi South 3.5 mph - N/A   Overcast
11:25 PM 37.4 °F - 37.4 °F 100% 30.36 in 1.4 mi SSW 2.3 mph - N/A   Overcast
11:26 PM 37.4 °F - 37.4 °F 100% 30.36 in 1.4 mi SSW 2.3 mph - N/A   Overcast
11:39 PM 37.4 °F 34.9 °F 37.4 °F 100% 30.36 in 1.4 mi South 3.5 mph - N/A   Overcast
11:40 PM 37.4 °F 34.9 °F 37.4 °F 100% 30.36 in 1.4 mi South 3.5 mph - N/A   Overcast
11:55 PM 37.4 °F 33.8 °F 37.4 °F 100% 30.36 in 1.6 mi South 4.6 mph - N/A   Overcast
11:59 PM 37.4 °F 34.9 °F 37.4 °F 100% 30.36 in 1.6 mi SSE 3.5 mph - N/A   Overcast